• In Sweden
  • List of Countries
  • For 7 days
  • Water Temperature
  • Satellite Maps
  • Weather Map
  • Weather Widgets
  • user-avatar
    Login

    Hourly Weather Chekmarevo

    Today, 25 September, Tuesday

    Time Temperature Precipitation Wind Pressure Humidity
    00:00 +7°C° 2 mm 5 mps 735 mmHg 92%
    01:00 +7°C° 1.2 mm 5 mps 734 mmHg 92%
    02:00 +7°C° 1.2 mm 5 mps 733 mmHg 92%
    03:00 +9°C° 0 mm 3 mps 732 mmHg 93%
    04:00 +9°C° 0.8 mm 3 mps 732 mmHg 93%
    05:00 +9°C° 0.8 mm 3 mps 732 mmHg 93%
    06:00 +8°C° 0.8 mm 3 mps 732 mmHg 93%
    07:00 +8°C° 0.5 mm 3 mps 733 mmHg 92%
    08:00 +7°C° 0.5 mm 4 mps 733 mmHg 92%
    09:00 +7°C° 0.5 mm 5 mps 733 mmHg 91%
    10:00 +7°C° 0.5 mm 5 mps 734 mmHg 90%
    11:00 +7°C° 0.5 mm 6 mps 735 mmHg 89%
    12:00 +7°C° 0.5 mm 6 mps 736 mmHg 88%
    13:00 +6°C° 0.4 mm 7 mps 737 mmHg 87%
    14:00 +6°C° 0.4 mm 7 mps 738 mmHg 87%
    15:00 +6°C° 0.4 mm 7 mps 739 mmHg 86%
    16:00 +6°C° 0.3 mm 7 mps 739 mmHg 85%
    17:00 +7°C° 0.3 mm 6 mps 740 mmHg 84%
    18:00 +7°C° 0.3 mm 6 mps 741 mmHg 83%
    19:00 +5°C° 0.1 mm 6 mps 742 mmHg 82%
    20:00 +5°C° 0.1 mm 6 mps 743 mmHg 81%
    21:00 +5°C° 0.1 mm 6 mps 743 mmHg 80%
    22:00 +5°C° 0 mm 5 mps 744 mmHg 82%
    23:00 +3°C° 0 mm 5 mps 745 mmHg 83%

    Tomorrow, 26 September, Wednesday

    Time Temperature Precipitation Wind Pressure Humidity
    00:00 +3°C° 0 mm 5 mps 746 mmHg 85%
    01:00 +3°C° 0 mm 5 mps 747 mmHg 85%
    02:00 +2°C° 0 mm 5 mps 747 mmHg 85%
    03:00 +2°C° 0 mm 5 mps 748 mmHg 85%
    04:00 +3°C° 0 mm 4 mps 749 mmHg 84%
    05:00 +1°C° 0 mm 4 mps 749 mmHg 84%
    06:00 +1°C° 0 mm 4 mps 750 mmHg 84%
    07:00 +1°C° 0 mm 4 mps 751 mmHg 79%
    08:00 +3°C° 0 mm 4 mps 751 mmHg 75%
    09:00 +4°C° 0 mm 4 mps 751 mmHg 71%
    10:00 +5°C° 0 mm 4 mps 752 mmHg 67%
    11:00 +7°C° 0 mm 4 mps 752 mmHg 64%
    12:00 +10°C° 0 mm 4 mps 752 mmHg 60%
    13:00 +9°C° 0 mm 5 mps 751 mmHg 61%
    14:00 +9°C° 0 mm 5 mps 751 mmHg 62%
    15:00 +10°C° 0 mm 5 mps 751 mmHg 62%
    16:00 +9°C° 0 mm 5 mps 750 mmHg 65%
    17:00 +8°C° 0 mm 4 mps 749 mmHg 68%
    18:00 +8°C° 0 mm 4 mps 749 mmHg 71%
    19:00 +7°C° 0 mm 5 mps 748 mmHg 69%
    20:00 +7°C° 0 mm 6 mps 747 mmHg 67%
    21:00 +7°C° 0 mm 6 mps 747 mmHg 65%
    22:00 +6°C° 0.6 mm 7 mps 745 mmHg 71%
    23:00 +5°C° 0.6 mm 7 mps 744 mmHg 76%

    Day after tomorrow, 27 September, Thursday

    Time Temperature Precipitation Wind Pressure Humidity
    00:00 +5°C° 0.6 mm 8 mps 743 mmHg 82%
    01:00 +4°C° 1.5 mm 8 mps 742 mmHg 84%
    02:00 +4°C° 1.5 mm 8 mps 740 mmHg 85%
    03:00 +4°C° 1.5 mm 8 mps 739 mmHg 87%
    04:00 +4°C° 1.2 mm 8 mps 738 mmHg 88%
    05:00 +4°C° 1.2 mm 7 mps 737 mmHg 89%
    06:00 +5°C° 1.2 mm 7 mps 736 mmHg 90%
    07:00 +5°C° 1 mm 6 mps 736 mmHg 89%
    08:00 +7°C° 1 mm 6 mps 735 mmHg 88%
    09:00 +7°C° 1 mm 6 mps 735 mmHg 87%
    10:00 +8°C° 0.1 mm 6 mps 735 mmHg 80%
    11:00 +9°C° 0.1 mm 7 mps 735 mmHg 73%
    12:00 +9°C° 0.1 mm 7 mps 736 mmHg 66%
    13:00 +9°C° 0.3 mm 7 mps 736 mmHg 67%
    14:00 +9°C° 0.3 mm 7 mps 736 mmHg 67%
    15:00 +7°C° 0.3 mm 8 mps 737 mmHg 67%
    16:00 +8°C° 0.1 mm 7 mps 737 mmHg 70%
    17:00 +7°C° 0.1 mm 6 mps 738 mmHg 72%
    18:00 +6°C° 0.1 mm 5 mps 738 mmHg 74%
    19:00 +6°C° 0 mm 5 mps 739 mmHg 75%
    20:00 +5°C° 0 mm 5 mps 739 mmHg 77%
    21:00 +5°C° 0 mm 5 mps 739 mmHg 78%
    22:00 +5°C° 0 mm 5 mps 739 mmHg 78%
    23:00 +5°C° 0 mm 5 mps 740 mmHg 79%

    28 September, Friday

    Time Temperature Precipitation Wind Pressure Humidity
    00:00 +5°C° 0 mm 5 mps 740 mmHg 79%
    01:00 +3°C° 0 mm 5 mps 740 mmHg 79%
    02:00 +3°C° 0 mm 5 mps 741 mmHg 80%
    03:00 +3°C° 0 mm 5 mps 741 mmHg 80%
    04:00 +3°C° 0 mm 5 mps 741 mmHg 81%
    05:00 +3°C° 0 mm 5 mps 741 mmHg 83%
    06:00 +2°C° 0 mm 5 mps 742 mmHg 85%
    07:00 +4°C° 0.1 mm 4 mps 741 mmHg 83%
    08:00 +4°C° 0.1 mm 4 mps 741 mmHg 82%
    09:00 +5°C° 0.1 mm 4 mps 741 mmHg 80%
    10:00 +4°C° 0.9 mm 4 mps 740 mmHg 82%
    11:00 +4°C° 0.9 mm 4 mps 739 mmHg 85%
    12:00 +4°C° 0.9 mm 4 mps 738 mmHg 87%
    13:00 +5°C° 2.3 mm 4 mps 737 mmHg 89%
    14:00 +5°C° 2.3 mm 5 mps 736 mmHg 90%
    15:00 +6°C° 2.3 mm 5 mps 735 mmHg 92%
    16:00 +5°C° 0.3 mm 5 mps 736 mmHg 91%
    17:00 +5°C° 0.3 mm 5 mps 736 mmHg 91%
    18:00 +5°C° 0.3 mm 4 mps 736 mmHg 90%
    19:00 +3°C° 0.1 mm 5 mps 737 mmHg 89%
    20:00 +3°C° 0.1 mm 5 mps 739 mmHg 88%
    21:00 +3°C° 0.1 mm 5 mps 740 mmHg 87%
    22:00 +2°C° 0 mm 5 mps 741 mmHg 86%
    23:00 +1°C° 0 mm 5 mps 742 mmHg 84%

    29 September, Saturday

    Time Temperature Precipitation Wind Pressure Humidity
    00:00 0°C° 0 mm 5 mps 743 mmHg 83%
    01:00 -1°C° 0 mm 5 mps 744 mmHg 84%
    02:00 -1°C° 0 mm 4 mps 745 mmHg 85%
    03:00 -1°C° 0 mm 4 mps 746 mmHg 86%
    04:00 -2°C° 0 mm 4 mps 746 mmHg 86%
    05:00 -2°C° 0 mm 4 mps 747 mmHg 87%
    06:00 -2°C° 0 mm 4 mps 748 mmHg 87%
    07:00 -1°C° 0 mm 4 mps 748 mmHg 83%
    08:00 0°C° 0 mm 5 mps 749 mmHg 79%
    09:00 0°C° 0 mm 5 mps 750 mmHg 75%
    10:00 +2°C° 0 mm 5 mps 750 mmHg 69%
    11:00 +3°C° 0 mm 5 mps 751 mmHg 62%
    12:00 +5°C° 0 mm 5 mps 751 mmHg 56%
    13:00 +5°C° 0 mm 5 mps 752 mmHg 54%
    14:00 +6°C° 0 mm 5 mps 752 mmHg 53%
    15:00 +6°C° 0 mm 5 mps 752 mmHg 51%
    16:00 +5°C° 0 mm 4 mps 752 mmHg 56%
    17:00 +4°C° 0 mm 3 mps 753 mmHg 62%
    18:00 +4°C° 0 mm 2 mps 753 mmHg 67%
    19:00 +3°C° 0 mm 2 mps 753 mmHg 70%
    20:00 +2°C° 0 mm 2 mps 754 mmHg 73%
    21:00 +1°C° 0 mm 2 mps 754 mmHg 76%
    22:00 +1°C° 0 mm 2 mps 755 mmHg 77%
    23:00 -1°C° 0 mm 2 mps 755 mmHg 79%

    30 September, Sunday

    Time Temperature Precipitation Wind Pressure Humidity
    00:00 +1°C° 0 mm 1 mps 755 mmHg 80%
    01:00 +1°C° 0 mm 1 mps 755 mmHg 81%
    02:00 +1°C° 0 mm 1 mps 756 mmHg 82%
    03:00 0°C° 0 mm 1 mps 756 mmHg 83%
    04:00 0°C° 0 mm 1 mps 756 mmHg 83%
    05:00 0°C° 0 mm 1 mps 756 mmHg 82%
    06:00 -2°C° 0 mm 2 mps 756 mmHg 82%
    07:00 -1°C° 0 mm 2 mps 755 mmHg 75%
    08:00 +1°C° 0 mm 3 mps 755 mmHg 68%
    09:00 +2°C° 0 mm 3 mps 755 mmHg 61%
    10:00 +3°C° 0 mm 4 mps 755 mmHg 57%
    11:00 +5°C° 0 mm 4 mps 755 mmHg 53%
    12:00 +6°C° 0 mm 5 mps 754 mmHg 48%
    13:00 +7°C° 0 mm 5 mps 754 mmHg 49%
    14:00 +7°C° 0 mm 5 mps 753 mmHg 49%
    15:00 +8°C° 0 mm 6 mps 753 mmHg 50%
    16:00 +7°C° 0 mm 5 mps 752 mmHg 55%
    17:00 +6°C° 0 mm 4 mps 752 mmHg 61%
    18:00 +5°C° 0 mm 4 mps 752 mmHg 67%
    19:00 +5°C° 0 mm 4 mps 752 mmHg 69%
    20:00 +4°C° 0 mm 4 mps 752 mmHg 72%
    21:00 +4°C° 0 mm 4 mps 752 mmHg 74%
    22:00 +4°C° 0 mm 4 mps 751 mmHg 75%
    23:00 +4°C° 0 mm 4 mps 751 mmHg 76%
    Show more